CMP423 MPTO-SBFL

Flight info

Callsign CMP423
Flight time 6h 31m
Altitude 35000
Route DAND1A JAQUE PUKAM DOSGO EKARA BUXIV MUBOD ARTID ILTEN ASAPA AKTOR OPKON LANCE BOGUR DABUN ISUNO AKRIL VALEV ROKOR LON BRASA BOLIP UTGED USVEV EDREX1A
Aircraft B737/M-SDE3FGHIRWY/S

Departure

Time 2026-04-20 19:25
Airport Tocumen International Airport (MPTO)

Arrival

Time 2026-04-21 01:56
Airport Hercílio Luz International Airport (SBFL)
Time Latitude Longitude Altitude Speed Heading
2026-04-20 18:54 9.06415 -79.38877 29 ft 0 kts 272°
2026-04-20 19:11 9.06414 -79.38859 29 ft 4 kts 279°
2026-04-20 19:11 9.06407 -79.38833 29 ft 4 kts 295°
2026-04-20 19:11 9.06393 -79.38810 29 ft 4 kts 314°
2026-04-20 19:12 9.06372 -79.38794 29 ft 4 kts 338°
2026-04-20 19:12 9.06348 -79.38789 29 ft 2 kts
2026-04-20 19:16 9.06354 -79.38788 29 ft 3 kts 11°
2026-04-20 19:17 9.06376 -79.38754 29 ft 9 kts 90°
2026-04-20 19:17 9.06337 -79.38676 29 ft 16 kts 121°
2026-04-20 19:17 9.06230 -79.38622 29 ft 21 kts 185°
2026-04-20 19:17 9.06085 -79.38684 29 ft 24 kts 208°
2026-04-20 19:18 9.05936 -79.38769 29 ft 25 kts 209°
2026-04-20 19:18 9.05788 -79.38853 29 ft 23 kts 212°
2026-04-20 19:18 9.05653 -79.38934 29 ft 23 kts 210°
2026-04-20 19:18 9.05518 -79.39012 29 ft 22 kts 209°
2026-04-20 19:19 9.05387 -79.39087 29 ft 21 kts 210°
2026-04-20 19:19 9.05260 -79.39160 29 ft 21 kts 210°
2026-04-20 19:19 9.05137 -79.39231 29 ft 20 kts 210°
2026-04-20 19:19 9.05018 -79.39300 29 ft 19 kts 209°
2026-04-20 19:20 9.04902 -79.39365 29 ft 19 kts 208°
2026-04-20 19:20 9.04822 -79.39347 29 ft 11 kts 122°
2026-04-20 19:20 9.04813 -79.39333 29 ft 0 kts 121°
2026-04-20 19:23 9.04813 -79.39332 29 ft 1 kts 121°
2026-04-20 19:23 9.04799 -79.39309 28 ft 6 kts 120°
2026-04-20 19:24 9.04779 -79.39263 30 ft 9 kts 84°
2026-04-20 19:24 9.04859 -79.39206 30 ft 31 kts 30°
2026-04-20 19:24 9.05267 -79.38974 30 ft 102 kts 29°
2026-04-20 19:24 9.06069 -79.38517 33 ft 160 kts 30°
2026-04-20 19:25 9.07096 -79.37931 421 ft 178 kts 30°
2026-04-20 19:25 9.08177 -79.37297 1329 ft 172 kts 43°
2026-04-20 19:25 9.08661 -79.36255 2153 ft 171 kts 91°
2026-04-20 19:25 9.08484 -79.34973 2525 ft 198 kts 98°
2026-04-20 19:26 9.08223 -79.33507 2773 ft 226 kts 98°
2026-04-20 19:26 9.07939 -79.31866 3125 ft 245 kts 98°
2026-04-20 19:26 9.07651 -79.30103 3736 ft 258 kts 97°
2026-04-20 19:26 9.07336 -79.28314 4607 ft 263 kts 107°
2026-04-20 19:27 9.06296 -79.26772 5307 ft 274 kts 140°
2026-04-20 19:27 9.04747 -79.25619 6164 ft 279 kts 144°
2026-04-20 19:27 9.03141 -79.24494 6978 ft 283 kts 144°
2026-04-20 19:27 9.01506 -79.23360 7808 ft 286 kts 144°
2026-04-20 19:28 8.99857 -79.22208 8591 ft 290 kts 144°
2026-04-20 19:28 8.98184 -79.21027 9308 ft 296 kts 144°
2026-04-20 19:28 8.96516 -79.19839 10072 ft 298 kts 144°
2026-04-20 19:28 8.94781 -79.18595 10533 ft 315 kts 144°
2026-04-20 19:29 8.92931 -79.17261 10707 ft 338 kts 144°
2026-04-20 19:29 8.90954 -79.15831 10858 ft 360 kts 143°
2026-04-20 19:29 8.88857 -79.14310 11114 ft 377 kts 143°
2026-04-20 19:29 8.86700 -79.12745 11636 ft 385 kts 143°
2026-04-20 19:30 8.84523 -79.11163 12306 ft 387 kts 143°
2026-04-20 19:30 8.82323 -79.09566 12962 ft 390 kts 143°
2026-04-20 19:30 8.80112 -79.07959 13600 ft 393 kts 143°
2026-04-20 19:30 8.77883 -79.06337 14199 ft 395 kts 143°
2026-04-20 19:31 8.75666 -79.04725 14775 ft 398 kts 143°
2026-04-20 19:31 8.73403 -79.03079 15273 ft 403 kts 143°
2026-04-20 19:31 8.71121 -79.01419 15814 ft 405 kts 143°
2026-04-20 19:31 8.68827 -78.99751 16393 ft 407 kts 143°
2026-04-20 19:32 8.66521 -78.98075 16883 ft 410 kts 143°
2026-04-20 19:32 8.64192 -78.96382 17309 ft 414 kts 143°
2026-04-20 19:32 8.61844 -78.94676 17797 ft 416 kts 143°
2026-04-20 19:32 8.59491 -78.92968 18267 ft 417 kts 143°
2026-04-20 19:33 8.57127 -78.91250 18669 ft 420 kts 143°
2026-04-20 19:33 8.54766 -78.89535 19046 ft 424 kts 143°
2026-04-20 19:33 8.52364 -78.87790 19429 ft 426 kts 143°
2026-04-20 19:33 8.49945 -78.86034 19818 ft 429 kts 143°
2026-04-20 19:34 8.47515 -78.84270 20175 ft 432 kts 143°
2026-04-20 19:34 8.45069 -78.82494 20518 ft 434 kts 143°
2026-04-20 19:34 8.42608 -78.80709 20852 ft 437 kts 143°
2026-04-20 19:34 8.40131 -78.78911 21193 ft 439 kts 143°
2026-04-20 19:35 8.37638 -78.77103 21498 ft 442 kts 143°
2026-04-20 19:35 8.35130 -78.75284 21804 ft 444 kts 143°
2026-04-20 19:35 8.32612 -78.73458 22092 ft 447 kts 143°
2026-04-20 19:35 8.30078 -78.71620 22374 ft 448 kts 142°
2026-04-20 19:36 8.27538 -78.69777 22631 ft 451 kts 142°
2026-04-20 19:36 8.25013 -78.67947 22880 ft 453 kts 142°
2026-04-20 19:36 8.22451 -78.66090 23120 ft 455 kts 142°
2026-04-20 19:36 8.19872 -78.64221 23341 ft 457 kts 142°
2026-04-20 19:37 8.17280 -78.62343 23571 ft 459 kts 142°
2026-04-20 19:37 8.14673 -78.60455 23809 ft 461 kts 142°
2026-04-20 19:37 8.12060 -78.58563 24029 ft 462 kts 142°
2026-04-20 19:37 8.09475 -78.56690 24234 ft 464 kts 142°
2026-04-20 19:38 8.06848 -78.54789 24456 ft 465 kts 142°
2026-04-20 19:38 8.04212 -78.52881 24682 ft 466 kts 143°
2026-04-20 19:38 8.01571 -78.50969 24896 ft 467 kts 143°
2026-04-20 19:38 7.98922 -78.49053 25105 ft 468 kts 143°
2026-04-20 19:39 7.96266 -78.47130 25300 ft 469 kts 143°
2026-04-20 19:39 7.93607 -78.45206 25498 ft 470 kts 143°
2026-04-20 19:39 7.90937 -78.43275 25690 ft 471 kts 143°
2026-04-20 19:39 7.88301 -78.41368 25878 ft 472 kts 143°
2026-04-20 19:40 7.85615 -78.39426 26058 ft 473 kts 143°
2026-04-20 19:40 7.82936 -78.37490 26233 ft 474 kts 143°
2026-04-20 19:40 7.80254 -78.35550 26405 ft 475 kts 144°
2026-04-20 19:40 7.77561 -78.33604 26573 ft 476 kts 144°
2026-04-20 19:41 7.74872 -78.31660 26752 ft 477 kts 144°
2026-04-20 19:41 7.72171 -78.29708 26915 ft 478 kts 144°
2026-04-20 19:41 7.69460 -78.27749 27058 ft 479 kts 144°
2026-04-20 19:41 7.66746 -78.25789 27247 ft 480 kts 144°
2026-04-20 19:42 7.64033 -78.23829 27479 ft 480 kts 144°
2026-04-20 19:42 7.61311 -78.21863 27588 ft 482 kts 144°
2026-04-20 19:42 7.58574 -78.19886 27703 ft 483 kts 144°
2026-04-20 19:42 7.55880 -78.17941 27869 ft 483 kts 144°
2026-04-20 19:43 7.53146 -78.15968 28026 ft 483 kts 144°
2026-04-20 19:43 7.50460 -78.13930 28214 ft 482 kts 142°
2026-04-20 19:43 7.47846 -78.11816 28445 ft 481 kts 141°
2026-04-20 19:43 7.45268 -78.09668 28655 ft 480 kts 141°
2026-04-20 19:44 7.42699 -78.07512 28870 ft 479 kts 141°
2026-04-20 19:44 7.40138 -78.05366 29086 ft 479 kts 141°
2026-04-20 19:44 7.37572 -78.03227 29309 ft 477 kts 141°
2026-04-20 19:44 7.35009 -78.01101 29546 ft 477 kts 141°
2026-04-20 19:45 7.32481 -77.99012 29825 ft 476 kts 141°
2026-04-20 19:45 7.29918 -77.96901 30055 ft 476 kts 142°
2026-04-20 19:45 7.27351 -77.94789 30280 ft 475 kts 142°
2026-04-20 19:45 7.24792 -77.92685 30543 ft 474 kts 142°
2026-04-20 19:46 7.22234 -77.90581 30841 ft 473 kts 142°
2026-04-20 19:46 7.19685 -77.88485 31120 ft 472 kts 142°
2026-04-20 19:46 7.17134 -77.86387 31369 ft 472 kts 142°
2026-04-20 19:46 7.14622 -77.84321 31621 ft 471 kts 142°
2026-04-20 19:47 7.12081 -77.82231 31897 ft 470 kts 142°
2026-04-20 19:47 7.09549 -77.80150 32167 ft 469 kts 142°
2026-04-20 19:47 7.07023 -77.78073 32450 ft 468 kts 142°
2026-04-20 19:47 7.04501 -77.75998 32742 ft 467 kts 141°
2026-04-20 19:48 7.01986 -77.73930 33049 ft 466 kts 141°
2026-04-20 19:48 6.99479 -77.71870 33333 ft 465 kts 141°
2026-04-20 19:48 6.96978 -77.69814 33655 ft 463 kts 141°
2026-04-20 19:48 6.94481 -77.67763 33972 ft 461 kts 141°
2026-04-20 19:49 6.91998 -77.65724 34231 ft 461 kts 141°
2026-04-20 19:49 6.89512 -77.63684 34471 ft 461 kts 141°
2026-04-20 19:49 6.87031 -77.61647 34730 ft 460 kts 141°
2026-04-20 19:49 6.84585 -77.59640 34880 ft 460 kts 141°
2026-04-20 19:50 6.82093 -77.57596 34859 ft 462 kts 141°
2026-04-20 19:50 6.77124 -77.53515 34851 ft 459 kts 141°
2026-04-20 19:51 6.72191 -77.49465 34862 ft 456 kts 141°
2026-04-20 19:51 6.67286 -77.45440 34855 ft 454 kts 141°
2026-04-20 19:52 6.62383 -77.41421 34867 ft 453 kts 141°
2026-04-20 19:52 6.57494 -77.37413 34863 ft 454 kts 141°
2026-04-20 19:53 6.52616 -77.33414 34864 ft 455 kts 141°
2026-04-20 19:53 6.47692 -77.29379 34868 ft 457 kts 141°
2026-04-20 19:54 6.42754 -77.25333 34862 ft 459 kts 141°
2026-04-20 19:54 6.37790 -77.21267 34853 ft 461 kts 141°
2026-04-20 19:55 6.32842 -77.17216 34856 ft 462 kts 141°
2026-04-20 19:55 6.27859 -77.13135 34850 ft 462 kts 141°
2026-04-20 19:56 6.23718 -77.09745 34847 ft 462 kts 141°
2026-04-20 19:56 6.17892 -77.04977 34855 ft 461 kts 141°
2026-04-20 19:57 6.12926 -77.00915 34862 ft 459 kts 141°
2026-04-20 19:57 6.07911 -76.96942 34857 ft 459 kts 143°
2026-04-20 19:58 6.02867 -76.93079 34864 ft 458 kts 143°
2026-04-20 19:58 5.97802 -76.89196 34864 ft 457 kts 143°
2026-04-20 19:59 5.92754 -76.85307 34850 ft 457 kts 143°
2026-04-20 19:59 5.87716 -76.81417 34855 ft 456 kts 143°
2026-04-20 20:00 5.82688 -76.77535 34842 ft 456 kts 143°
2026-04-20 20:00 5.77693 -76.73681 34841 ft 456 kts 143°
2026-04-20 20:01 5.72669 -76.69802 34838 ft 455 kts 143°
2026-04-20 20:01 5.67644 -76.65925 34833 ft 455 kts 143°
2026-04-20 20:02 5.62619 -76.62049 34834 ft 455 kts 143°
2026-04-20 20:02 5.57625 -76.58199 34833 ft 455 kts 143°
2026-04-20 20:03 5.52589 -76.54316 34841 ft 456 kts 143°
2026-04-20 20:03 5.47564 -76.50443 34847 ft 455 kts 143°
2026-04-20 20:04 5.42536 -76.46568 34861 ft 455 kts 143°
2026-04-20 20:04 5.38359 -76.43349 34873 ft 455 kts 143°
2026-04-20 20:05 5.33337 -76.39481 34892 ft 455 kts 143°
2026-04-20 20:05 5.28306 -76.35607 34907 ft 456 kts 143°
2026-04-20 20:06 5.23306 -76.31755 34922 ft 455 kts 143°
2026-04-20 20:06 5.18274 -76.27887 34943 ft 455 kts 143°
2026-04-20 20:07 5.13212 -76.24062 34958 ft 455 kts 143°
2026-04-20 20:07 5.08137 -76.20245 34973 ft 456 kts 143°
2026-04-20 20:08 5.03076 -76.16433 34983 ft 457 kts 143°
2026-04-20 20:08 4.97999 -76.12604 35023 ft 456 kts 143°
2026-04-20 20:09 4.92921 -76.08774 35041 ft 456 kts 143°
2026-04-20 20:09 4.87840 -76.04940 35023 ft 456 kts 143°
2026-04-20 20:10 4.82789 -76.01132 35001 ft 456 kts 143°
2026-04-20 20:10 4.77721 -75.97311 35002 ft 455 kts 144°
2026-04-20 20:11 4.72661 -75.93497 34985 ft 455 kts 144°
2026-04-20 20:11 4.67602 -75.89685 34997 ft 454 kts 144°
2026-04-20 20:12 4.62557 -75.85884 35004 ft 453 kts 144°
2026-04-20 20:12 4.57518 -75.82086 35013 ft 453 kts 144°
2026-04-20 20:13 4.50002 -75.76425 35019 ft 452 kts 144°
2026-04-20 20:13 4.44973 -75.72638 35015 ft 452 kts 144°
2026-04-20 20:14 4.39942 -75.68850 35027 ft 452 kts 144°
2026-04-20 20:14 4.34905 -75.65059 35023 ft 453 kts 144°
2026-04-20 20:15 4.29857 -75.61259 35012 ft 454 kts 144°
2026-04-20 20:15 4.24797 -75.57450 35003 ft 455 kts 144°
2026-04-20 20:16 4.19735 -75.53642 35005 ft 455 kts 144°
2026-04-20 20:16 4.14671 -75.49831 34986 ft 455 kts 144°
2026-04-20 20:17 4.09755 -75.45886 34987 ft 455 kts 141°
2026-04-20 20:17 4.04914 -75.41767 34975 ft 455 kts 140°
2026-04-20 20:18 4.00083 -75.37670 34975 ft 454 kts 141°
2026-04-20 20:18 3.95240 -75.33603 34980 ft 454 kts 141°
2026-04-20 20:19 3.90419 -75.29573 34971 ft 453 kts 141°
2026-04-20 20:19 3.85565 -75.25520 34968 ft 453 kts 141°
2026-04-20 20:20 3.80722 -75.21475 34960 ft 453 kts 141°
2026-04-20 20:20 3.75907 -75.17453 34953 ft 453 kts 141°
2026-04-20 20:21 3.71059 -75.13406 34890 ft 454 kts 141°
2026-04-20 20:21 3.66207 -75.09353 34882 ft 454 kts 141°
2026-04-20 20:22 3.61353 -75.05300 34892 ft 453 kts 141°
2026-04-20 20:22 3.56509 -75.01253 34884 ft 453 kts 141°
2026-04-20 20:23 3.51665 -74.97209 34889 ft 453 kts 141°
2026-04-20 20:23 3.46822 -74.93171 34886 ft 453 kts 141°
2026-04-20 20:24 3.42011 -74.89156 34882 ft 452 kts 141°
2026-04-20 20:24 3.37171 -74.85117 34885 ft 453 kts 141°
2026-04-20 20:25 3.32323 -74.81072 34873 ft 453 kts 141°
2026-04-20 20:25 3.27475 -74.77030 34882 ft 453 kts 141°
2026-04-20 20:26 3.22650 -74.73005 34871 ft 454 kts 141°
2026-04-20 20:26 3.17786 -74.68948 34877 ft 455 kts 141°
2026-04-20 20:27 3.12912 -74.64886 34867 ft 455 kts 141°
2026-04-20 20:27 3.08042 -74.60825 34860 ft 455 kts 141°
2026-04-20 20:28 3.03180 -74.56772 34877 ft 454 kts 141°
2026-04-20 20:28 2.98316 -74.52718 34859 ft 454 kts 141°
2026-04-20 20:29 2.93463 -74.48673 34871 ft 453 kts 141°
2026-04-20 20:29 2.88621 -74.44637 34879 ft 453 kts 141°
2026-04-20 20:30 2.83785 -74.40605 34878 ft 453 kts 141°
2026-04-20 20:30 2.78947 -74.36574 34882 ft 453 kts 141°
2026-04-20 20:31 2.74007 -74.32742 34869 ft 451 kts 150°
2026-04-20 20:31 2.68548 -74.29626 34878 ft 452 kts 151°
2026-04-20 20:32 2.63059 -74.26556 34880 ft 452 kts 151°
2026-04-20 20:32 2.57586 -74.23457 34868 ft 452 kts 150°
2026-04-20 20:33 2.52113 -74.20333 34858 ft 452 kts 150°
2026-04-20 20:33 2.46688 -74.17229 34862 ft 451 kts 150°
2026-04-20 20:34 2.41228 -74.14106 34862 ft 451 kts 150°
2026-04-20 20:34 2.35774 -74.10988 34858 ft 451 kts 150°
2026-04-20 20:35 2.30357 -74.07892 34861 ft 451 kts 150°
2026-04-20 20:35 2.24899 -74.04773 34851 ft 451 kts 150°
2026-04-20 20:36 2.19446 -74.01655 34851 ft 451 kts 150°
2026-04-20 20:36 2.13994 -73.98539 34852 ft 451 kts 150°
2026-04-20 20:37 2.08543 -73.95424 34852 ft 451 kts 150°
2026-04-20 20:37 2.03086 -73.92305 34847 ft 451 kts 150°
2026-04-20 20:38 1.97646 -73.89197 34853 ft 450 kts 150°
2026-04-20 20:38 1.92238 -73.86108 34847 ft 450 kts 150°
2026-04-20 20:39 1.86802 -73.83000 34858 ft 450 kts 150°
2026-04-20 20:39 1.81355 -73.79889 34849 ft 451 kts 150°
2026-04-20 20:40 1.76240 -73.76282 34860 ft 450 kts 136°
2026-04-20 20:40 1.72327 -73.71446 34845 ft 452 kts 123°
2026-04-20 20:41 1.69072 -73.66050 34850 ft 454 kts 122°
2026-04-20 20:41 1.65842 -73.60619 34837 ft 454 kts 122°
2026-04-20 20:42 1.62579 -73.55200 34842 ft 454 kts 122°
2026-04-20 20:42 1.59295 -73.49791 34842 ft 455 kts 122°
2026-04-20 20:43 1.56005 -73.44386 34833 ft 455 kts 122°
2026-04-20 20:43 1.52736 -73.39015 34833 ft 455 kts 122°
2026-04-20 20:44 1.49444 -73.33603 34835 ft 455 kts 122°
2026-04-20 20:44 1.46155 -73.28198 34840 ft 455 kts 122°
2026-04-20 20:45 1.42862 -73.22787 34832 ft 455 kts 122°
2026-04-20 20:45 1.39571 -73.17379 34831 ft 455 kts 122°
2026-04-20 20:46 1.36285 -73.11979 34836 ft 454 kts 122°
2026-04-20 20:46 1.33550 -73.07485 34831 ft 454 kts 122°
2026-04-20 20:47 1.29738 -73.01220 34833 ft 454 kts 122°
2026-04-20 20:47 1.26990 -72.96704 34833 ft 453 kts 122°
2026-04-20 20:48 1.23725 -72.91341 34843 ft 453 kts 122°
2026-04-20 20:48 1.20443 -72.85952 34831 ft 453 kts 122°
2026-04-20 20:49 1.17175 -72.80580 34834 ft 453 kts 122°
2026-04-20 20:49 1.13897 -72.75192 34816 ft 454 kts 122°
2026-04-20 20:50 1.10617 -72.69807 34818 ft 453 kts 122°
2026-04-20 20:50 1.07340 -72.64423 34837 ft 453 kts 122°
2026-04-20 20:51 1.04085 -72.59075 34847 ft 453 kts 122°
2026-04-20 20:51 1.00510 -72.53890 34814 ft 453 kts 134°
2026-04-20 20:52 0.95625 -72.49951 34823 ft 453 kts 150°
2026-04-20 20:52 0.90003 -72.47109 34820 ft 453 kts 153°
2026-04-20 20:53 0.84327 -72.44343 34820 ft 454 kts 153°
2026-04-20 20:53 0.78654 -72.41538 34813 ft 455 kts 153°
2026-04-20 20:54 0.72988 -72.38700 34818 ft 455 kts 152°
2026-04-20 20:54 0.67344 -72.35865 34810 ft 455 kts 152°
2026-04-20 20:55 0.61681 -72.33020 34815 ft 456 kts 152°
2026-04-20 20:55 0.55997 -72.30167 34806 ft 457 kts 152°
2026-04-20 20:56 0.50344 -72.27329 34816 ft 457 kts 152°
2026-04-20 20:56 0.44654 -72.24472 34816 ft 458 kts 152°
2026-04-20 20:57 0.38957 -72.21613 34816 ft 458 kts 152°
2026-04-20 20:57 0.33262 -72.18755 34808 ft 458 kts 152°
2026-04-20 20:58 0.27561 -72.15894 34808 ft 458 kts 152°
2026-04-20 20:58 0.21866 -72.13035 34814 ft 458 kts 152°
2026-04-20 20:59 0.16172 -72.10177 34821 ft 458 kts 152°
2026-04-20 20:59 0.10469 -72.07314 34815 ft 458 kts 152°
2026-04-20 21:00 0.04806 -72.04472 34816 ft 458 kts 152°
2026-04-20 21:00 -0.00890 -72.01613 34811 ft 458 kts 152°
2026-04-20 21:01 -0.06375 -71.98395 34818 ft 456 kts 142°
2026-04-20 21:01 -0.11399 -71.94528 34816 ft 456 kts 141°
2026-04-20 21:02 -0.16395 -71.90627 34814 ft 456 kts 141°
2026-04-20 21:02 -0.21407 -71.86751 34815 ft 455 kts 141°
2026-04-20 21:03 -0.26429 -71.82894 34817 ft 456 kts 142°
2026-04-20 21:03 -0.31433 -71.79062 34812 ft 456 kts 142°
2026-04-20 21:04 -0.36476 -71.75201 34816 ft 456 kts 141°
2026-04-20 21:04 -0.41505 -71.71348 34819 ft 456 kts 141°
2026-04-20 21:05 -0.46536 -71.67493 34814 ft 455 kts 142°
2026-04-20 21:05 -0.51569 -71.63637 34821 ft 455 kts 141°
2026-04-20 21:06 -0.56594 -71.59787 34816 ft 455 kts 141°
2026-04-20 21:06 -0.61578 -71.55967 34818 ft 454 kts 141°
2026-04-20 21:07 -0.66600 -71.52119 34815 ft 455 kts 141°
2026-04-20 21:07 -0.71625 -71.48266 34816 ft 455 kts 141°
2026-04-20 21:08 -0.76651 -71.44414 34838 ft 455 kts 141°
2026-04-20 21:08 -0.81680 -71.40561 34815 ft 455 kts 141°
2026-04-20 21:09 -0.86682 -71.36729 34811 ft 454 kts 141°
2026-04-20 21:09 -0.91701 -71.32882 34820 ft 453 kts 141°
2026-04-20 21:10 -0.96698 -71.29053 34815 ft 452 kts 141°
2026-04-20 21:10 -1.01663 -71.25246 34806 ft 452 kts 141°
2026-04-20 21:11 -1.06686 -71.21395 34821 ft 452 kts 141°
2026-04-20 21:11 -1.11642 -71.17596 34817 ft 452 kts 141°
2026-04-20 21:12 -1.16629 -71.13774 34807 ft 452 kts 141°
2026-04-20 21:12 -1.21626 -71.09942 34821 ft 452 kts 141°
2026-04-20 21:13 -1.26621 -71.06113 34809 ft 452 kts 141°
2026-04-20 21:13 -1.31587 -71.02304 34819 ft 453 kts 141°
2026-04-20 21:14 -1.36587 -70.98469 34820 ft 453 kts 141°
2026-04-20 21:14 -1.41599 -70.94626 34821 ft 454 kts 141°
2026-04-20 21:15 -1.46611 -70.90785 34809 ft 454 kts 141°
2026-04-20 21:15 -1.51599 -70.86962 34822 ft 453 kts 141°
2026-04-20 21:16 -1.56601 -70.83125 34820 ft 453 kts 141°
2026-04-20 21:16 -1.61608 -70.79285 34831 ft 453 kts 141°
2026-04-20 21:17 -1.66606 -70.75452 34814 ft 453 kts 141°
2026-04-20 21:17 -1.71603 -70.71619 34830 ft 452 kts 141°
2026-04-20 21:18 -1.76592 -70.67791 34827 ft 451 kts 141°
2026-04-20 21:18 -1.81544 -70.63992 34831 ft 451 kts 141°
2026-04-20 21:19 -1.86525 -70.60171 34827 ft 451 kts 141°
2026-04-20 21:20 -1.93994 -70.54440 34829 ft 451 kts 141°
2026-04-20 21:20 -1.98969 -70.50623 34834 ft 450 kts 141°
2026-04-20 21:21 -2.03912 -70.46829 34823 ft 451 kts 141°
2026-04-20 21:21 -2.08900 -70.43001 34833 ft 451 kts 141°
2026-04-20 21:22 -2.13887 -70.39177 34812 ft 451 kts 141°
2026-04-20 21:22 -2.18862 -70.35357 34821 ft 450 kts 141°
2026-04-20 21:23 -2.23831 -70.31540 34814 ft 450 kts 141°
2026-04-20 21:23 -2.28801 -70.27725 34831 ft 450 kts 141°
2026-04-20 21:24 -2.33767 -70.23912 34820 ft 450 kts 141°
2026-04-20 21:24 -2.38699 -70.20124 34820 ft 450 kts 141°
2026-04-20 21:25 -2.43663 -70.16311 34831 ft 449 kts 141°
2026-04-20 21:25 -2.48626 -70.12500 34823 ft 450 kts 141°
2026-04-20 21:26 -2.53584 -70.08687 34832 ft 450 kts 141°
2026-04-20 21:26 -2.58560 -70.04869 34830 ft 450 kts 141°
2026-04-20 21:27 -2.63529 -70.01051 34831 ft 450 kts 141°
2026-04-20 21:27 -2.68473 -69.97253 34831 ft 451 kts 141°
2026-04-20 21:28 -2.73454 -69.93426 34825 ft 451 kts 141°
2026-04-20 21:28 -2.78441 -69.89593 34809 ft 452 kts 141°
2026-04-20 21:29 -2.83404 -69.85777 34833 ft 452 kts 141°
2026-04-20 21:29 -2.88393 -69.81942 34814 ft 452 kts 141°
2026-04-20 21:30 -2.93379 -69.78109 34825 ft 452 kts 141°
2026-04-20 21:30 -2.98365 -69.74274 34826 ft 451 kts 141°
2026-04-20 21:31 -3.03281 -69.70365 34817 ft 450 kts 136°
2026-04-20 21:31 -3.07734 -69.66018 34823 ft 450 kts 134°
2026-04-20 21:32 -3.12136 -69.61572 34822 ft 449 kts 134°
2026-04-20 21:32 -3.16567 -69.57143 34831 ft 449 kts 134°
2026-04-20 21:33 -3.21014 -69.52743 34833 ft 449 kts 134°
2026-04-20 21:33 -3.25433 -69.48383 34832 ft 449 kts 134°
2026-04-20 21:34 -3.29160 -69.44705 34834 ft 449 kts 134°
2026-04-20 21:34 -3.34339 -69.39593 34833 ft 450 kts 134°
2026-04-20 21:35 -3.38043 -69.35932 34837 ft 450 kts 134°
2026-04-20 21:35 -3.42510 -69.31523 34837 ft 451 kts 134°
2026-04-20 21:36 -3.46985 -69.27104 34833 ft 451 kts 134°
2026-04-20 21:36 -3.51425 -69.22718 34831 ft 451 kts 134°
2026-04-20 21:37 -3.55896 -69.18302 34834 ft 451 kts 134°
2026-04-20 21:37 -3.60367 -69.13885 34834 ft 451 kts 134°
2026-04-20 21:38 -3.64835 -69.09469 34828 ft 451 kts 134°
2026-04-20 21:38 -3.69310 -69.05046 34827 ft 451 kts 134°
2026-04-20 21:39 -3.73778 -69.00630 34831 ft 451 kts 134°
2026-04-20 21:39 -3.78247 -68.96211 34820 ft 451 kts 134°
2026-04-20 21:40 -3.82685 -68.91823 34828 ft 451 kts 134°
2026-04-20 21:40 -3.87156 -68.87400 34832 ft 451 kts 134°
2026-04-20 21:41 -3.91629 -68.82975 34816 ft 451 kts 134°
2026-04-20 21:41 -3.96095 -68.78556 34811 ft 451 kts 134°
2026-04-20 21:42 -4.00537 -68.74160 34818 ft 451 kts 134°
2026-04-20 21:42 -4.05015 -68.69747 34810 ft 451 kts 134°
2026-04-20 21:43 -4.09503 -68.65339 34811 ft 451 kts 134°
2026-04-20 21:43 -4.13982 -68.60936 34811 ft 451 kts 134°
2026-04-20 21:44 -4.18463 -68.56529 34818 ft 451 kts 134°
2026-04-20 21:44 -4.22935 -68.52127 34820 ft 450 kts 134°
2026-04-20 21:45 -4.27373 -68.47759 34818 ft 450 kts 134°
2026-04-20 21:45 -4.31840 -68.43360 34827 ft 450 kts 134°
2026-04-20 21:46 -4.36299 -68.38969 34820 ft 449 kts 134°
2026-04-20 21:46 -4.40762 -68.34572 34834 ft 450 kts 134°
2026-04-20 21:47 -4.45227 -68.30173 34822 ft 450 kts 134°
2026-04-20 21:47 -4.49688 -68.25780 34819 ft 450 kts 134°
2026-04-20 21:48 -4.54154 -68.21377 34826 ft 450 kts 134°
2026-04-20 21:48 -4.58592 -68.17005 34812 ft 450 kts 134°
2026-04-20 21:49 -4.63067 -68.12593 34832 ft 451 kts 134°
2026-04-20 21:49 -4.67545 -68.08176 34815 ft 451 kts 134°
2026-04-20 21:50 -4.72032 -68.03752 34830 ft 452 kts 134°
2026-04-20 21:50 -4.76520 -67.99326 34830 ft 452 kts 134°
2026-04-20 21:51 -4.80982 -67.94924 34827 ft 452 kts 134°
2026-04-20 21:51 -4.85467 -67.90498 34816 ft 452 kts 134°
2026-04-20 21:52 -4.89950 -67.86072 34820 ft 451 kts 134°
2026-04-20 21:52 -4.94426 -67.81654 34822 ft 451 kts 134°
2026-04-20 21:53 -4.98870 -67.77267 34818 ft 450 kts 134°
2026-04-20 21:53 -5.03333 -67.72859 34823 ft 450 kts 134°
2026-04-20 21:54 -5.07793 -67.68455 34815 ft 449 kts 134°
2026-04-20 21:54 -5.12249 -67.64053 34821 ft 449 kts 134°
2026-04-20 21:55 -5.16672 -67.59681 34831 ft 449 kts 134°
2026-04-20 21:55 -5.21123 -67.55279 34822 ft 449 kts 134°
2026-04-20 21:56 -5.25573 -67.50879 34819 ft 449 kts 134°
2026-04-20 21:56 -5.30021 -67.46480 34822 ft 449 kts 134°
2026-04-20 21:57 -5.34476 -67.42076 34812 ft 449 kts 134°
2026-04-20 21:57 -5.38933 -67.37673 34813 ft 449 kts 134°
2026-04-20 21:58 -5.43365 -67.33292 34816 ft 449 kts 134°
2026-04-20 21:58 -5.47818 -67.28890 34820 ft 449 kts 134°
2026-04-20 21:59 -5.52273 -67.24484 34823 ft 450 kts 134°
2026-04-20 21:59 -5.56729 -67.20072 34817 ft 450 kts 134°
2026-04-20 22:00 -5.61189 -67.15659 34810 ft 450 kts 134°
2026-04-20 22:00 -5.65652 -67.11241 34820 ft 450 kts 134°
2026-04-20 22:01 -5.70081 -67.06856 34815 ft 450 kts 134°
2026-04-20 22:01 -5.74544 -67.02436 34816 ft 450 kts 134°
2026-04-20 22:02 -5.79005 -66.98016 34809 ft 450 kts 134°
2026-04-20 22:02 -5.83468 -66.93594 34812 ft 451 kts 134°
2026-04-20 22:03 -5.87903 -66.89200 34819 ft 451 kts 134°
2026-04-20 22:03 -5.92369 -66.84769 34816 ft 451 kts 134°
2026-04-20 22:04 -5.96840 -66.80337 34815 ft 451 kts 134°
2026-04-20 22:04 -6.01312 -66.75903 34813 ft 452 kts 134°
2026-04-20 22:05 -6.05788 -66.71462 34819 ft 452 kts 134°
2026-04-20 22:05 -6.10251 -66.67034 34830 ft 453 kts 134°
2026-04-20 22:06 -6.14748 -66.62571 34831 ft 453 kts 134°
2026-04-20 22:06 -6.19239 -66.58111 34829 ft 454 kts 134°
2026-04-20 22:07 -6.23736 -66.53646 34826 ft 454 kts 134°
2026-04-20 22:07 -6.28202 -66.49209 34811 ft 454 kts 134°
2026-04-20 22:08 -6.32704 -66.44735 34816 ft 454 kts 134°
2026-04-20 22:08 -6.37199 -66.40267 34831 ft 455 kts 134°
2026-04-20 22:09 -6.41695 -66.35797 34827 ft 455 kts 134°
2026-04-20 22:09 -6.46197 -66.31321 34808 ft 455 kts 134°
2026-04-20 22:10 -6.50695 -66.26850 34815 ft 454 kts 134°
2026-04-20 22:10 -6.55190 -66.22377 34809 ft 454 kts 134°
2026-04-20 22:11 -6.59645 -66.17942 34827 ft 453 kts 134°
2026-04-20 22:11 -6.64124 -66.13482 34828 ft 453 kts 134°
2026-04-20 22:12 -6.68603 -66.09022 34831 ft 453 kts 134°
2026-04-20 22:12 -6.73079 -66.04564 34822 ft 453 kts 134°
2026-04-20 22:13 -6.77552 -66.00107 34826 ft 453 kts 134°
2026-04-20 22:13 -6.82028 -65.95647 34824 ft 453 kts 134°
2026-04-20 22:14 -6.86487 -65.91202 34824 ft 453 kts 134°
2026-04-20 22:14 -6.90974 -65.86727 34831 ft 454 kts 134°
2026-04-20 22:15 -6.95461 -65.82250 34820 ft 454 kts 134°
2026-04-20 22:15 -6.99949 -65.77771 34830 ft 455 kts 134°
2026-04-20 22:16 -7.04444 -65.73286 34823 ft 454 kts 133°
2026-04-20 22:16 -7.08933 -65.68805 34831 ft 455 kts 134°
2026-04-20 22:17 -7.13406 -65.64338 34817 ft 455 kts 134°
2026-04-20 22:17 -7.17899 -65.59848 34822 ft 455 kts 133°
2026-04-20 22:18 -7.22389 -65.55360 34826 ft 454 kts 133°
2026-04-20 22:18 -7.26878 -65.50872 34830 ft 454 kts 134°
2026-04-20 22:19 -7.31351 -65.46401 34855 ft 457 kts 134°
2026-04-20 22:19 -7.33611 -65.44139 35052 ft 458 kts 134°
2026-04-20 22:19 -7.35875 -65.41875 35369 ft 456 kts 133°
2026-04-20 22:19 -7.38125 -65.39625 35729 ft 454 kts 133°
2026-04-20 22:20 -7.40359 -65.37390 36074 ft 451 kts 133°
2026-04-20 22:20 -7.42578 -65.35170 36346 ft 450 kts 133°
2026-04-20 22:20 -7.44799 -65.32947 36509 ft 451 kts 133°
2026-04-20 22:20 -7.47033 -65.30712 36660 ft 452 kts 133°
2026-04-20 22:21 -7.49235 -65.28506 36845 ft 452 kts 133°
2026-04-20 22:21 -7.53704 -65.24031 36836 ft 450 kts 133°
2026-04-20 22:22 -7.58113 -65.19615 36829 ft 442 kts 133°
2026-04-20 22:22 -7.61718 -65.16003 36836 ft 438 kts 133°
2026-04-20 22:23 -7.66030 -65.11681 36831 ft 435 kts 133°
2026-04-20 22:23 -7.71018 -65.06678 36844 ft 437 kts 133°
2026-04-20 22:24 -7.74666 -65.03018 36845 ft 444 kts 133°
2026-04-20 22:24 -7.79052 -64.98619 36826 ft 445 kts 133°
2026-04-20 22:25 -7.83412 -64.94244 36832 ft 444 kts 133°
2026-04-20 22:25 -7.87793 -64.89841 36832 ft 444 kts 133°
2026-04-20 22:26 -7.92166 -64.85454 36835 ft 443 kts 133°
2026-04-20 22:26 -7.96531 -64.81072 36829 ft 442 kts 133°
2026-04-20 22:27 -8.03065 -64.74507 36832 ft 441 kts 134°
2026-04-20 22:27 -8.07410 -64.70138 36832 ft 441 kts 134°
2026-04-20 22:28 -8.11723 -64.65801 36839 ft 441 kts 134°
2026-04-20 22:28 -8.16073 -64.61427 36829 ft 441 kts 134°
2026-04-20 22:29 -8.20419 -64.57054 36833 ft 441 kts 133°
2026-04-20 22:29 -8.24776 -64.52666 36834 ft 442 kts 133°
2026-04-20 22:30 -8.29131 -64.48283 36833 ft 442 kts 133°
2026-04-20 22:30 -8.33490 -64.43891 36836 ft 442 kts 133°
2026-04-20 22:31 -8.37850 -64.39498 36833 ft 443 kts 133°
2026-04-20 22:31 -8.42190 -64.35124 36837 ft 443 kts 133°
2026-04-20 22:32 -8.46556 -64.30722 36833 ft 443 kts 133°
2026-04-20 22:32 -8.50919 -64.26319 36833 ft 443 kts 133°
2026-04-20 22:33 -8.55286 -64.21912 36837 ft 443 kts 133°
2026-04-20 22:33 -8.59653 -64.17504 36833 ft 443 kts 134°
2026-04-20 22:34 -8.64018 -64.13098 36834 ft 443 kts 134°
2026-04-20 22:34 -8.68354 -64.08718 36833 ft 443 kts 134°
2026-04-20 22:35 -8.72710 -64.04316 36835 ft 443 kts 134°
2026-04-20 22:35 -8.77089 -63.99922 36837 ft 443 kts 134°
2026-04-20 22:36 -8.81533 -63.95584 36829 ft 443 kts 135°
2026-04-20 22:36 -8.85985 -63.91255 36838 ft 443 kts 135°
2026-04-20 22:37 -8.90399 -63.86949 36830 ft 444 kts 135°
2026-04-20 22:37 -8.94830 -63.82612 36833 ft 443 kts 135°
2026-04-20 22:38 -8.99264 -63.78270 36833 ft 444 kts 135°
2026-04-20 22:38 -9.03705 -63.73920 36831 ft 444 kts 135°
2026-04-20 22:39 -9.08154 -63.69561 36829 ft 444 kts 135°
2026-04-20 22:39 -9.12569 -63.65234 36829 ft 444 kts 135°
2026-04-20 22:40 -9.17021 -63.60869 36838 ft 444 kts 135°
2026-04-20 22:40 -9.21461 -63.56512 36829 ft 445 kts 135°
2026-04-20 22:41 -9.25875 -63.52181 36834 ft 445 kts 135°
2026-04-20 22:41 -9.30317 -63.47821 36834 ft 445 kts 135°
2026-04-20 22:42 -9.34762 -63.43454 36833 ft 445 kts 135°
2026-04-20 22:42 -9.39219 -63.39076 36834 ft 445 kts 135°
2026-04-20 22:43 -9.43662 -63.34710 36841 ft 445 kts 135°
2026-04-20 22:43 -9.48104 -63.30344 36841 ft 445 kts 135°
2026-04-20 22:44 -9.52544 -63.25976 36841 ft 445 kts 135°
2026-04-20 22:44 -9.56984 -63.21607 36840 ft 445 kts 135°
2026-04-20 22:45 -9.61394 -63.17265 36841 ft 445 kts 135°
2026-04-20 22:45 -9.65835 -63.12892 36846 ft 445 kts 135°
2026-04-20 22:46 -9.70294 -63.08507 36839 ft 445 kts 135°
2026-04-20 22:46 -9.74706 -63.04157 36844 ft 445 kts 135°
2026-04-20 22:47 -9.79151 -62.99773 36852 ft 445 kts 135°
2026-04-20 22:47 -9.83589 -62.95394 36854 ft 445 kts 135°
2026-04-20 22:48 -9.88030 -62.91011 36855 ft 445 kts 135°
2026-04-20 22:48 -9.92472 -62.86625 36850 ft 445 kts 135°
2026-04-20 22:49 -9.96888 -62.82268 36852 ft 446 kts 135°
2026-04-20 22:49 -10.01333 -62.77878 36853 ft 446 kts 135°
2026-04-20 22:50 -10.05781 -62.73485 36848 ft 446 kts 135°
2026-04-20 22:50 -10.10234 -62.69085 36855 ft 446 kts 135°
2026-04-20 22:51 -10.14689 -62.64677 36852 ft 447 kts 135°
2026-04-20 22:51 -10.19115 -62.60297 36860 ft 447 kts 135°
2026-04-20 22:52 -10.23571 -62.55887 36861 ft 447 kts 135°
2026-04-20 22:52 -10.28029 -62.51472 36862 ft 447 kts 135°
2026-04-20 22:53 -10.32485 -62.47057 36860 ft 448 kts 135°
2026-04-20 22:53 -10.36938 -62.42644 36861 ft 447 kts 135°
2026-04-20 22:54 -10.41366 -62.38253 36861 ft 447 kts 135°
2026-04-20 22:54 -10.45814 -62.33841 36860 ft 447 kts 135°
2026-04-20 22:55 -10.50260 -62.29430 36860 ft 446 kts 135°
2026-04-20 22:55 -10.54703 -62.25022 36862 ft 446 kts 135°
2026-04-20 22:56 -10.59148 -62.20607 36861 ft 446 kts 135°
2026-04-20 22:56 -10.63588 -62.16195 36867 ft 445 kts 135°
2026-04-20 22:57 -10.68021 -62.11788 36870 ft 445 kts 135°
2026-04-20 22:57 -10.72423 -62.07411 36871 ft 446 kts 135°
2026-04-20 22:58 -10.76856 -62.03000 36870 ft 445 kts 135°
2026-04-20 22:58 -10.81289 -61.98588 36867 ft 445 kts 135°
2026-04-20 22:59 -10.85722 -61.94175 36859 ft 446 kts 135°
2026-04-20 22:59 -10.90166 -61.89748 36851 ft 447 kts 135°
2026-04-20 23:00 -10.94607 -61.85322 36856 ft 447 kts 135°
2026-04-20 23:00 -10.99052 -61.80891 36852 ft 447 kts 135°
2026-04-20 23:01 -11.03475 -61.76480 36852 ft 448 kts 135°
2026-04-20 23:01 -11.07934 -61.72029 36854 ft 448 kts 135°
2026-04-20 23:02 -11.12390 -61.67579 36853 ft 448 kts 135°
2026-04-20 23:02 -11.16844 -61.63131 36847 ft 448 kts 135°
2026-04-20 23:03 -11.21264 -61.58713 36854 ft 448 kts 135°
2026-04-20 23:03 -11.25722 -61.54258 36851 ft 448 kts 135°
2026-04-20 23:04 -11.30177 -61.49802 36851 ft 448 kts 135°
2026-04-20 23:04 -11.34622 -61.45353 36851 ft 448 kts 135°
2026-04-20 23:05 -11.39044 -61.40924 36854 ft 448 kts 135°
2026-04-20 23:05 -11.43489 -61.36474 36853 ft 448 kts 135°
2026-04-20 23:06 -11.47933 -61.32022 36848 ft 448 kts 135°
2026-04-20 23:06 -11.52380 -61.27563 36854 ft 448 kts 135°
2026-04-20 23:07 -11.56829 -61.23101 36852 ft 448 kts 135°
2026-04-20 23:07 -11.61270 -61.18645 36851 ft 448 kts 135°
2026-04-20 23:08 -11.65689 -61.14210 36852 ft 448 kts 135°
2026-04-20 23:08 -11.70137 -61.09742 36853 ft 448 kts 135°
2026-04-20 23:09 -11.74582 -61.05277 36855 ft 448 kts 135°
2026-04-20 23:09 -11.79022 -61.00813 36863 ft 448 kts 135°
2026-04-20 23:10 -11.83460 -60.96347 36870 ft 448 kts 135°
2026-04-20 23:10 -11.87874 -60.91905 36870 ft 447 kts 135°
2026-04-20 23:11 -11.92312 -60.87438 36872 ft 447 kts 135°
2026-04-20 23:11 -11.95995 -60.83728 36872 ft 448 kts 135°
2026-04-20 23:12 -12.01162 -60.78520 36873 ft 449 kts 135°
2026-04-20 23:12 -12.04889 -60.74762 36868 ft 450 kts 135°
2026-04-20 23:13 -12.09349 -60.70262 36875 ft 451 kts 135°
2026-04-20 23:13 -12.13793 -60.65782 36872 ft 452 kts 135°
2026-04-20 23:14 -12.18280 -60.61248 36874 ft 452 kts 135°
2026-04-20 23:14 -12.22765 -60.56716 36869 ft 453 kts 135°
2026-04-20 23:15 -12.27219 -60.52212 36872 ft 453 kts 135°
2026-04-20 23:15 -12.31816 -60.47807 36869 ft 452 kts 140°
2026-04-20 23:16 -12.36749 -60.43813 36870 ft 452 kts 142°
2026-04-20 23:16 -12.41723 -60.39886 36872 ft 451 kts 142°
2026-04-20 23:17 -12.46666 -60.35934 36867 ft 451 kts 142°
2026-04-20 23:17 -12.51589 -60.31954 36870 ft 451 kts 142°
2026-04-20 23:18 -12.56498 -60.27967 36869 ft 450 kts 142°
2026-04-20 23:18 -12.61382 -60.24000 36868 ft 451 kts 142°
2026-04-20 23:19 -12.66299 -60.20004 36871 ft 451 kts 142°
2026-04-20 23:19 -12.71212 -60.16008 36871 ft 450 kts 142°
2026-04-20 23:20 -12.76128 -60.12012 36874 ft 451 kts 142°
2026-04-20 23:20 -12.81023 -60.08032 36869 ft 452 kts 142°
2026-04-20 23:21 -12.85965 -60.04008 36874 ft 452 kts 142°
2026-04-20 23:21 -12.90903 -59.99986 36872 ft 453 kts 142°
2026-04-20 23:22 -12.95843 -59.95960 36867 ft 454 kts 142°
2026-04-20 23:22 -13.00758 -59.91952 36873 ft 455 kts 142°
2026-04-20 23:23 -13.05717 -59.87909 36870 ft 456 kts 142°
2026-04-20 23:23 -13.10686 -59.83854 36870 ft 457 kts 142°
2026-04-20 23:24 -13.15671 -59.79783 36899 ft 457 kts 142°
2026-04-20 23:24 -13.20634 -59.75728 36985 ft 456 kts 142°
2026-04-20 23:25 -13.25594 -59.71674 36991 ft 456 kts 142°
2026-04-20 23:25 -13.30558 -59.67612 36985 ft 457 kts 142°
2026-04-20 23:26 -13.35531 -59.63542 36981 ft 457 kts 142°
2026-04-20 23:26 -13.40484 -59.59487 36982 ft 457 kts 142°
2026-04-20 23:27 -13.45457 -59.55415 36979 ft 457 kts 142°
2026-04-20 23:27 -13.50429 -59.51338 36981 ft 458 kts 142°
2026-04-20 23:28 -13.55417 -59.47246 36976 ft 458 kts 142°
2026-04-20 23:28 -13.60404 -59.43154 36972 ft 458 kts 142°
2026-04-20 23:29 -13.65356 -59.39088 36973 ft 458 kts 142°
2026-04-20 23:29 -13.70346 -59.34988 36969 ft 458 kts 142°
2026-04-20 23:30 -13.75334 -59.30888 36961 ft 458 kts 142°
2026-04-20 23:30 -13.80311 -59.26795 36964 ft 458 kts 142°
2026-04-20 23:31 -13.85289 -59.22699 36959 ft 458 kts 142°
2026-04-20 23:31 -13.90232 -59.18630 36955 ft 457 kts 142°
2026-04-20 23:32 -13.95198 -59.14540 36952 ft 457 kts 142°
2026-04-20 23:32 -14.00159 -59.10450 36954 ft 457 kts 142°
2026-04-20 23:33 -14.05124 -59.06354 36941 ft 457 kts 142°
2026-04-20 23:33 -14.10095 -59.02252 36948 ft 457 kts 142°
2026-04-20 23:34 -14.15062 -58.98150 36943 ft 457 kts 142°
2026-04-20 23:34 -14.20037 -58.94040 36939 ft 458 kts 142°
2026-04-20 23:35 -14.27471 -58.87891 36938 ft 459 kts 142°
2026-04-20 23:36 -14.32452 -58.83771 36935 ft 459 kts 142°
2026-04-20 23:36 -14.37450 -58.79631 36932 ft 460 kts 142°
2026-04-20 23:37 -14.42443 -58.75496 36919 ft 461 kts 142°
2026-04-20 23:37 -14.47299 -58.71194 36930 ft 461 kts 139°
2026-04-20 23:38 -14.52020 -58.66708 36929 ft 461 kts 139°
2026-04-20 23:38 -14.56732 -58.62215 36924 ft 461 kts 139°
2026-04-20 23:39 -14.61462 -58.57743 36911 ft 461 kts 139°
2026-04-20 23:39 -14.66197 -58.53284 36918 ft 460 kts 139°
2026-04-20 23:40 -14.70928 -58.48832 36916 ft 460 kts 139°
2026-04-20 23:40 -14.75654 -58.44383 36918 ft 459 kts 139°
2026-04-20 23:41 -14.80375 -58.39934 36921 ft 459 kts 139°
2026-04-20 23:41 -14.85066 -58.35511 36900 ft 460 kts 139°
2026-04-20 23:42 -14.89791 -58.31053 36914 ft 460 kts 139°
2026-04-20 23:42 -14.94525 -58.26581 36908 ft 460 kts 139°
2026-04-20 23:43 -14.99249 -58.22117 36911 ft 460 kts 139°
2026-04-20 23:43 -15.03976 -58.17650 36914 ft 460 kts 139°
2026-04-20 23:44 -15.08677 -58.13204 36907 ft 461 kts 140°
2026-04-20 23:44 -15.13416 -58.08720 36907 ft 461 kts 140°
2026-04-20 23:45 -15.18151 -58.04235 36904 ft 461 kts 140°
2026-04-20 23:45 -15.22889 -57.99743 36905 ft 461 kts 140°
2026-04-20 23:46 -15.27622 -57.95254 36893 ft 461 kts 140°
2026-04-20 23:46 -15.32322 -57.90794 36897 ft 461 kts 140°
2026-04-20 23:47 -15.37047 -57.86305 36896 ft 460 kts 140°
2026-04-20 23:47 -15.41773 -57.81814 36901 ft 460 kts 140°
2026-04-20 23:48 -15.46503 -57.77320 36899 ft 460 kts 140°
2026-04-20 23:48 -15.51221 -57.72831 36895 ft 460 kts 140°
2026-04-20 23:49 -15.55909 -57.68365 36905 ft 460 kts 140°
2026-04-20 23:49 -15.60627 -57.63871 36887 ft 461 kts 140°
2026-04-20 23:50 -15.65350 -57.59368 36887 ft 461 kts 140°
2026-04-20 23:50 -15.70072 -57.54867 36890 ft 461 kts 140°
2026-04-20 23:51 -15.74792 -57.50361 36886 ft 461 kts 140°
2026-04-20 23:51 -15.79512 -57.45851 36888 ft 460 kts 140°
2026-04-20 23:52 -15.84227 -57.41343 36890 ft 461 kts 140°
2026-04-20 23:52 -15.88914 -57.36863 36884 ft 461 kts 140°
2026-04-20 23:53 -15.93633 -57.32348 36889 ft 461 kts 140°
2026-04-20 23:53 -15.98349 -57.27829 36887 ft 461 kts 140°
2026-04-20 23:54 -16.03072 -57.23304 36892 ft 461 kts 140°
2026-04-20 23:54 -16.07784 -57.18784 36891 ft 460 kts 140°
2026-04-20 23:55 -16.12494 -57.14264 36888 ft 460 kts 140°
2026-04-20 23:55 -16.17173 -57.09770 36887 ft 460 kts 140°
2026-04-20 23:56 -16.21868 -57.05255 36889 ft 460 kts 140°
2026-04-20 23:56 -16.26584 -57.00722 36891 ft 460 kts 140°
2026-04-20 23:57 -16.31289 -56.96195 36887 ft 460 kts 140°
2026-04-20 23:57 -16.35196 -56.92435 36890 ft 460 kts 140°
2026-04-20 23:58 -16.40650 -56.87181 36889 ft 460 kts 140°
2026-04-20 23:58 -16.45349 -56.82648 36890 ft 460 kts 141°
2026-04-20 23:59 -16.49257 -56.78877 36887 ft 460 kts 141°
2026-04-20 23:59 -16.53961 -56.74337 36880 ft 460 kts 140°
2026-04-21 00:00 -16.58657 -56.69801 36880 ft 460 kts 140°
2026-04-21 00:00 -16.63360 -56.65253 36877 ft 460 kts 141°
2026-04-21 00:01 -16.68027 -56.60738 36882 ft 460 kts 141°
2026-04-21 00:01 -16.72730 -56.56183 36882 ft 460 kts 141°
2026-04-21 00:02 -16.77420 -56.51637 36879 ft 460 kts 141°
2026-04-21 00:02 -16.82114 -56.47087 36880 ft 460 kts 141°
2026-04-21 00:03 -16.86779 -56.42563 36881 ft 460 kts 141°
2026-04-21 00:03 -16.91473 -56.38004 36875 ft 459 kts 141°
2026-04-21 00:04 -16.96151 -56.33460 36878 ft 459 kts 141°
2026-04-21 00:04 -17.00820 -56.28920 36881 ft 459 kts 141°
2026-04-21 00:05 -17.05495 -56.24371 36880 ft 459 kts 141°
2026-04-21 00:05 -17.10172 -56.19818 36880 ft 459 kts 141°
2026-04-21 00:06 -17.14849 -56.15261 36878 ft 459 kts 141°
2026-04-21 00:06 -17.19491 -56.10733 36877 ft 458 kts 141°
2026-04-21 00:07 -17.24152 -56.06183 36883 ft 458 kts 141°
2026-04-21 00:07 -17.28807 -56.01639 36890 ft 457 kts 141°
2026-04-21 00:08 -17.33454 -55.97099 36887 ft 456 kts 141°
2026-04-21 00:08 -17.38093 -55.92560 36889 ft 456 kts 141°
2026-04-21 00:09 -17.42726 -55.88027 36884 ft 455 kts 141°
2026-04-21 00:09 -17.47323 -55.83526 36890 ft 454 kts 141°
2026-04-21 00:10 -17.51944 -55.78998 36898 ft 453 kts 141°
2026-04-21 00:10 -17.56546 -55.74481 36898 ft 452 kts 141°
2026-04-21 00:11 -17.61107 -55.70003 36910 ft 451 kts 141°
2026-04-21 00:11 -17.65686 -55.65510 36911 ft 450 kts 142°
2026-04-21 00:12 -17.70622 -55.61552 36910 ft 445 kts 149°
2026-04-21 00:12 -17.75746 -55.57905 36919 ft 444 kts 150°
2026-04-21 00:13 -17.80861 -55.54262 36908 ft 445 kts 149°
2026-04-21 00:13 -17.85954 -55.50564 36921 ft 445 kts 149°
2026-04-21 00:14 -17.91004 -55.46868 36924 ft 445 kts 149°
2026-04-21 00:14 -17.96093 -55.43141 36906 ft 446 kts 149°
2026-04-21 00:15 -18.01191 -55.39406 36915 ft 447 kts 149°
2026-04-21 00:15 -18.06300 -55.35660 36919 ft 447 kts 149°
2026-04-21 00:16 -18.11407 -55.31914 36929 ft 447 kts 149°
2026-04-21 00:16 -18.16480 -55.28192 36929 ft 447 kts 149°
2026-04-21 00:17 -18.21584 -55.24441 36923 ft 447 kts 149°
2026-04-21 00:17 -18.26681 -55.20695 36922 ft 447 kts 149°
2026-04-21 00:18 -18.31777 -55.16945 36933 ft 447 kts 149°
2026-04-21 00:18 -18.36874 -55.13193 36936 ft 447 kts 150°
2026-04-21 00:19 -18.41969 -55.09439 36937 ft 447 kts 149°
2026-04-21 00:19 -18.47061 -55.05685 36934 ft 447 kts 149°
2026-04-21 00:20 -18.52129 -55.01947 36939 ft 447 kts 149°
2026-04-21 00:20 -18.57217 -54.98188 36944 ft 446 kts 150°
2026-04-21 00:21 -18.62303 -54.94432 36945 ft 446 kts 150°
2026-04-21 00:21 -18.67390 -54.90669 36942 ft 447 kts 150°
2026-04-21 00:22 -18.72448 -54.86927 36951 ft 446 kts 150°
2026-04-21 00:22 -18.77535 -54.83159 36953 ft 447 kts 150°
2026-04-21 00:23 -18.82627 -54.79387 36956 ft 447 kts 150°
2026-04-21 00:23 -18.87721 -54.75609 36966 ft 447 kts 150°
2026-04-21 00:24 -18.92807 -54.71835 36960 ft 447 kts 150°
2026-04-21 00:24 -18.97898 -54.68053 36969 ft 447 kts 150°
2026-04-21 00:25 -19.02948 -54.64297 36978 ft 447 kts 150°
2026-04-21 00:25 -19.08033 -54.60514 36988 ft 446 kts 150°
2026-04-21 00:26 -19.13119 -54.56730 36992 ft 446 kts 150°
2026-04-21 00:26 -19.18197 -54.52947 36988 ft 447 kts 150°
2026-04-21 00:27 -19.23286 -54.49151 36992 ft 447 kts 150°
2026-04-21 00:27 -19.28369 -54.45358 36996 ft 447 kts 150°
2026-04-21 00:28 -19.33415 -54.41589 36999 ft 446 kts 150°
2026-04-21 00:28 -19.38496 -54.37793 37008 ft 447 kts 150°
2026-04-21 00:29 -19.43600 -54.33977 37366 ft 449 kts 150°
2026-04-21 00:29 -19.46139 -54.32075 37683 ft 446 kts 150°
2026-04-21 00:29 -19.48669 -54.30179 37945 ft 445 kts 150°
2026-04-21 00:29 -19.51197 -54.28286 38158 ft 445 kts 151°
2026-04-21 00:30 -19.53726 -54.26392 38338 ft 445 kts 151°
2026-04-21 00:30 -19.56255 -54.24497 38552 ft 445 kts 151°
2026-04-21 00:30 -19.58781 -54.22603 38781 ft 444 kts 151°
2026-04-21 00:30 -19.61297 -54.20715 38973 ft 443 kts 152°
2026-04-21 00:31 -19.63822 -54.18821 38990 ft 446 kts 152°
2026-04-21 00:31 -19.68883 -54.15021 39002 ft 444 kts 152°
2026-04-21 00:32 -19.73869 -54.11271 38998 ft 440 kts 152°
2026-04-21 00:32 -19.78842 -54.07530 39004 ft 437 kts 152°
2026-04-21 00:33 -19.83799 -54.03801 39018 ft 436 kts 152°
2026-04-21 00:33 -19.88765 -54.00062 39013 ft 437 kts 152°
2026-04-21 00:34 -19.93733 -53.96319 39017 ft 438 kts 152°
2026-04-21 00:34 -19.98680 -53.92587 39007 ft 439 kts 152°
2026-04-21 00:35 -20.03681 -53.88811 39006 ft 441 kts 152°
2026-04-21 00:35 -20.08701 -53.85018 39016 ft 443 kts 152°
2026-04-21 00:36 -20.13742 -53.81206 39004 ft 445 kts 152°
2026-04-21 00:36 -20.18762 -53.77406 39008 ft 446 kts 152°
2026-04-21 00:37 -20.23820 -53.73574 39006 ft 446 kts 152°
2026-04-21 00:37 -20.28883 -53.69736 39015 ft 446 kts 151°
2026-04-21 00:38 -20.33931 -53.65905 39011 ft 445 kts 151°
2026-04-21 00:38 -20.38952 -53.62093 39008 ft 444 kts 151°
2026-04-21 00:39 -20.43992 -53.58262 39003 ft 444 kts 151°
2026-04-21 00:39 -20.49016 -53.54441 39008 ft 443 kts 151°
2026-04-21 00:40 -20.54036 -53.50619 39010 ft 442 kts 151°
2026-04-21 00:40 -20.59009 -53.46829 39018 ft 442 kts 150°
2026-04-21 00:41 -20.64014 -53.43015 39014 ft 442 kts 150°
2026-04-21 00:41 -20.69023 -53.39194 39028 ft 442 kts 150°
2026-04-21 00:42 -20.74028 -53.35372 39017 ft 442 kts 150°
2026-04-21 00:42 -20.79039 -53.31543 39009 ft 442 kts 150°
2026-04-21 00:43 -20.84019 -53.27732 39012 ft 443 kts 150°
2026-04-21 00:43 -20.89031 -53.23896 39031 ft 443 kts 150°
2026-04-21 00:44 -20.94058 -53.20042 39030 ft 444 kts 150°
2026-04-21 00:44 -20.99089 -53.16183 39017 ft 445 kts 150°
2026-04-21 00:45 -21.06599 -53.10417 39030 ft 445 kts 150°
2026-04-21 00:45 -21.11430 -53.06236 39039 ft 450 kts 142°
2026-04-21 00:46 -21.15941 -53.01567 39031 ft 451 kts 141°
2026-04-21 00:46 -21.20429 -52.96887 39034 ft 448 kts 142°
2026-04-21 00:47 -21.24913 -52.92221 39020 ft 450 kts 142°
2026-04-21 00:47 -21.29453 -52.87613 39015 ft 449 kts 141°
2026-04-21 00:48 -21.33198 -52.83738 39034 ft 451 kts 141°
2026-04-21 00:48 -21.37710 -52.79090 39046 ft 446 kts 141°
2026-04-21 00:49 -21.42229 -52.74533 39088 ft 447 kts 141°
2026-04-21 00:49 -21.46688 -52.69867 39032 ft 448 kts 141°
2026-04-21 00:50 -21.51171 -52.65202 39040 ft 451 kts 141°
2026-04-21 00:50 -21.55692 -52.60652 39047 ft 444 kts 141°
2026-04-21 00:51 -21.60176 -52.56062 39012 ft 447 kts 141°
2026-04-21 00:51 -21.64661 -52.51336 39006 ft 451 kts 140°
2026-04-21 00:52 -21.69218 -52.46624 39039 ft 454 kts 141°
2026-04-21 00:52 -21.73789 -52.41937 39038 ft 454 kts 141°
2026-04-21 00:53 -21.78339 -52.37220 39040 ft 453 kts 141°
2026-04-21 00:53 -21.82850 -52.32541 39045 ft 452 kts 141°
2026-04-21 00:54 -21.87379 -52.27851 39046 ft 450 kts 142°
2026-04-21 00:54 -21.92271 -52.23723 39049 ft 445 kts 148°
2026-04-21 00:55 -21.97302 -52.19843 39045 ft 444 kts 149°
2026-04-21 00:55 -22.02318 -52.15958 39048 ft 443 kts 148°
2026-04-21 00:56 -22.07279 -52.12078 39044 ft 443 kts 148°
2026-04-21 00:56 -22.12268 -52.08157 39047 ft 442 kts 148°
2026-04-21 00:57 -22.17243 -52.04240 39052 ft 443 kts 148°
2026-04-21 00:57 -22.22234 -52.00308 39047 ft 444 kts 148°
2026-04-21 00:58 -22.27191 -51.96400 39047 ft 444 kts 148°
2026-04-21 00:58 -22.32194 -51.92451 39046 ft 444 kts 148°
2026-04-21 00:59 -22.37187 -51.88507 39056 ft 444 kts 148°
2026-04-21 00:59 -22.42181 -51.84558 39058 ft 445 kts 148°
2026-04-21 01:00 -22.47146 -51.80629 39052 ft 445 kts 148°
2026-04-21 01:00 -22.52155 -51.76661 39060 ft 445 kts 148°
2026-04-21 01:01 -22.57165 -51.72689 39055 ft 446 kts 148°
2026-04-21 01:01 -22.62176 -51.68709 39053 ft 447 kts 148°
2026-04-21 01:02 -22.67161 -51.64752 39053 ft 447 kts 148°
2026-04-21 01:02 -22.72179 -51.60764 39057 ft 447 kts 148°
2026-04-21 01:03 -22.77205 -51.56765 39057 ft 448 kts 148°
2026-04-21 01:03 -22.82225 -51.52768 39058 ft 448 kts 148°
2026-04-21 01:04 -22.87252 -51.48759 39058 ft 449 kts 148°
2026-04-21 01:04 -22.92284 -51.44741 39065 ft 449 kts 148°
2026-04-21 01:05 -22.97288 -51.40745 39065 ft 450 kts 148°
2026-04-21 01:05 -23.02335 -51.36711 39061 ft 450 kts 148°
2026-04-21 01:06 -23.07376 -51.32677 39068 ft 450 kts 148°
2026-04-21 01:06 -23.12425 -51.28631 39079 ft 451 kts 147°
2026-04-21 01:07 -23.17479 -51.24578 39071 ft 451 kts 148°
2026-04-21 01:07 -23.22498 -51.20550 39077 ft 452 kts 147°
2026-04-21 01:08 -23.27558 -51.16484 39070 ft 453 kts 147°
2026-04-21 01:08 -23.32625 -51.12408 39073 ft 453 kts 147°
2026-04-21 01:09 -23.37634 -51.08185 39058 ft 456 kts 144°
2026-04-21 01:09 -23.42607 -51.03893 39065 ft 456 kts 146°
2026-04-21 01:10 -23.47513 -50.99658 39078 ft 452 kts 146°
2026-04-21 01:10 -23.52436 -50.95373 39066 ft 454 kts 144°
2026-04-21 01:11 -23.57292 -50.91036 39049 ft 451 kts 146°
2026-04-21 01:11 -23.62185 -50.86780 39079 ft 451 kts 145°
2026-04-21 01:12 -23.67080 -50.82532 39088 ft 449 kts 147°
2026-04-21 01:12 -23.71981 -50.78289 39106 ft 454 kts 144°
2026-04-21 01:13 -23.76855 -50.73980 39078 ft 449 kts 144°
2026-04-21 01:13 -23.81710 -50.69725 39086 ft 447 kts 146°
2026-04-21 01:14 -23.86580 -50.65463 39087 ft 448 kts 145°
2026-04-21 01:14 -23.91449 -50.61173 39069 ft 453 kts 145°
2026-04-21 01:15 -23.96382 -50.56925 39101 ft 452 kts 146°
2026-04-21 01:15 -24.01320 -50.52615 39054 ft 456 kts 144°
2026-04-21 01:16 -24.06206 -50.48207 39101 ft 458 kts 145°
2026-04-21 01:16 -24.11202 -50.43883 39080 ft 456 kts 146°
2026-04-21 01:17 -24.16155 -50.39452 39123 ft 458 kts 146°
2026-04-21 01:17 -24.21149 -50.35071 39092 ft 461 kts 144°
2026-04-21 01:18 -24.26079 -50.30731 39112 ft 450 kts 145°
2026-04-21 01:18 -24.30908 -50.26418 39098 ft 447 kts 147°
2026-04-21 01:19 -24.35770 -50.22128 39095 ft 455 kts 144°
2026-04-21 01:19 -24.40704 -50.17764 39122 ft 456 kts 147°
2026-04-21 01:20 -24.45658 -50.13395 39122 ft 457 kts 144°
2026-04-21 01:20 -24.50596 -50.08955 39143 ft 459 kts 145°
2026-04-21 01:21 -24.55598 -50.04535 39119 ft 460 kts 145°
2026-04-21 01:21 -24.60578 -50.00167 39137 ft 453 kts 146°
2026-04-21 01:22 -24.65431 -49.95859 39139 ft 446 kts 146°
2026-04-21 01:22 -24.70218 -49.91557 39142 ft 447 kts 144°
2026-04-21 01:23 -24.75066 -49.87293 39168 ft 445 kts 146°
2026-04-21 01:23 -24.79884 -49.82962 39133 ft 446 kts 150°
2026-04-21 01:24 -24.85180 -49.79426 39137 ft 446 kts 156°
2026-04-21 01:24 -24.90574 -49.76019 39169 ft 446 kts 155°
2026-04-21 01:25 -24.95941 -49.72628 39197 ft 449 kts 155°
2026-04-21 01:25 -25.01326 -49.69162 39147 ft 449 kts 153°
2026-04-21 01:26 -25.06669 -49.65598 39157 ft 445 kts 156°
2026-04-21 01:26 -25.12013 -49.62181 39150 ft 442 kts 158°
2026-04-21 01:27 -25.17389 -49.58801 39178 ft 445 kts 155°
2026-04-21 01:27 -25.22730 -49.55259 39174 ft 448 kts 154°
2026-04-21 01:28 -25.28099 -49.51850 39208 ft 446 kts 154°
2026-04-21 01:28 -25.33402 -49.48266 39209 ft 446 kts 154°
2026-04-21 01:29 -25.38702 -49.44779 39195 ft 445 kts 156°
2026-04-21 01:29 -25.44106 -49.41305 39210 ft 451 kts 155°
2026-04-21 01:30 -25.49501 -49.37761 39180 ft 450 kts 155°
2026-04-21 01:30 -25.54925 -49.34347 39175 ft 444 kts 162°
2026-04-21 01:31 -25.60621 -49.31841 39183 ft 439 kts 165°
2026-04-21 01:31 -25.66318 -49.29382 39170 ft 439 kts 164°
2026-04-21 01:32 -25.72027 -49.27203 39178 ft 430 kts 173°
2026-04-21 01:32 -25.77886 -49.26000 39180 ft 427 kts 176°
2026-04-21 01:33 -25.83752 -49.24857 39169 ft 428 kts 175°
2026-04-21 01:33 -25.88624 -49.23835 39162 ft 429 kts 175°
2026-04-21 01:34 -25.94504 -49.22565 39155 ft 429 kts 174°
2026-04-21 01:34 -26.00370 -49.21290 39154 ft 429 kts 174°
2026-04-21 01:35 -26.06246 -49.20017 38788 ft 435 kts 175°
2026-04-21 01:35 -26.09214 -49.19268 38217 ft 437 kts 171°
2026-04-21 01:35 -26.12141 -49.18331 37551 ft 438 kts 169°
2026-04-21 01:36 -26.15049 -49.17318 36883 ft 437 kts 168°
2026-04-21 01:36 -26.17954 -49.16291 36174 ft 438 kts 167°
2026-04-21 01:36 -26.20826 -49.15287 35412 ft 439 kts 167°
2026-04-21 01:36 -26.23747 -49.14285 34600 ft 441 kts 167°
2026-04-21 01:37 -26.26696 -49.13286 33744 ft 444 kts 167°
2026-04-21 01:37 -26.29667 -49.12289 32872 ft 447 kts 167°
2026-04-21 01:37 -26.32658 -49.11287 31965 ft 450 kts 166°
2026-04-21 01:37 -26.35673 -49.10278 31021 ft 453 kts 166°
2026-04-21 01:38 -26.38714 -49.09259 30117 ft 456 kts 166°
2026-04-21 01:38 -26.41734 -49.08244 29436 ft 451 kts 166°
2026-04-21 01:38 -26.44690 -49.07251 28722 ft 448 kts 166°
2026-04-21 01:38 -26.47663 -49.06252 28025 ft 444 kts 166°
2026-04-21 01:39 -26.50605 -49.05262 27325 ft 440 kts 166°
2026-04-21 01:39 -26.53530 -49.04284 26631 ft 436 kts 166°
2026-04-21 01:39 -26.56454 -49.03411 25936 ft 433 kts 168°
2026-04-21 01:39 -26.59366 -49.02610 25240 ft 429 kts 169°
2026-04-21 01:40 -26.62255 -49.01829 24553 ft 426 kts 168°
2026-04-21 01:40 -26.65123 -49.01044 23860 ft 422 kts 168°
2026-04-21 01:40 -26.67966 -49.00253 23175 ft 419 kts 168°
2026-04-21 01:40 -26.70787 -48.99458 22482 ft 416 kts 168°
2026-04-21 01:41 -26.73586 -48.98666 21800 ft 413 kts 167°
2026-04-21 01:41 -26.76363 -48.97890 21129 ft 409 kts 168°
2026-04-21 01:41 -26.79128 -48.97231 20476 ft 404 kts 170°
2026-04-21 01:41 -26.81884 -48.96637 19794 ft 401 kts 170°
2026-04-21 01:42 -26.84612 -48.96062 19113 ft 397 kts 170°
2026-04-21 01:42 -26.87317 -48.95481 18432 ft 394 kts 170°
2026-04-21 01:42 -26.89992 -48.94897 17759 ft 390 kts 169°
2026-04-21 01:42 -26.92609 -48.94317 17094 ft 386 kts 169°
2026-04-21 01:43 -26.95232 -48.93731 16428 ft 382 kts 169°
2026-04-21 01:43 -26.97837 -48.93147 15778 ft 379 kts 169°
2026-04-21 01:43 -27.00406 -48.92573 15121 ft 375 kts 169°
2026-04-21 01:43 -27.02952 -48.92002 14477 ft 371 kts 169°
2026-04-21 01:44 -27.05477 -48.91437 13838 ft 367 kts 169°
2026-04-21 01:44 -27.07972 -48.90878 13197 ft 363 kts 169°
2026-04-21 01:44 -27.10438 -48.90326 12548 ft 359 kts 169°
2026-04-21 01:44 -27.12847 -48.89786 11969 ft 355 kts 169°
2026-04-21 01:45 -27.15243 -48.89249 11568 ft 345 kts 169°
2026-04-21 01:45 -27.17571 -48.88726 11160 ft 337 kts 168°
2026-04-21 01:45 -27.19847 -48.88215 10771 ft 329 kts 168°
2026-04-21 01:45 -27.22063 -48.87717 10468 ft 320 kts 169°
2026-04-21 01:46 -27.24213 -48.87234 10245 ft 309 kts 169°
2026-04-21 01:46 -27.26278 -48.86770 10088 ft 297 kts 169°
2026-04-21 01:46 -27.28255 -48.86325 10033 ft 282 kts 169°
2026-04-21 01:46 -27.30196 -48.85888 9427 ft 285 kts 169°
2026-04-21 01:47 -27.32129 -48.85453 8912 ft 281 kts 169°
2026-04-21 01:47 -27.34020 -48.85028 8533 ft 273 kts 169°
2026-04-21 01:47 -27.35867 -48.84611 8165 ft 269 kts 168°
2026-04-21 01:47 -27.37677 -48.84204 7816 ft 268 kts 168°
2026-04-21 01:48 -27.39504 -48.83792 7469 ft 267 kts 169°
2026-04-21 01:48 -27.41325 -48.83381 7118 ft 265 kts 169°
2026-04-21 01:48 -27.43133 -48.82974 6768 ft 264 kts 168°
2026-04-21 01:48 -27.44931 -48.82569 6427 ft 263 kts 168°
2026-04-21 01:49 -27.46726 -48.82165 6079 ft 262 kts 168°
2026-04-21 01:49 -27.48513 -48.81762 5725 ft 262 kts 168°
2026-04-21 01:49 -27.50288 -48.81360 5377 ft 259 kts 168°
2026-04-21 01:49 -27.52015 -48.80836 5129 ft 253 kts 151°
2026-04-21 01:50 -27.53285 -48.79540 4922 ft 245 kts 128°
2026-04-21 01:50 -27.54324 -48.78014 4594 ft 243 kts 126°
2026-04-21 01:50 -27.55245 -48.76446 4297 ft 237 kts 122°
2026-04-21 01:50 -27.56082 -48.74885 3982 ft 228 kts 121°
2026-04-21 01:51 -27.56878 -48.73377 3684 ft 218 kts 121°
2026-04-21 01:51 -27.57629 -48.71955 3397 ft 208 kts 121°
2026-04-21 01:51 -27.58351 -48.70591 3123 ft 197 kts 121°
2026-04-21 01:51 -27.59043 -48.69292 2862 ft 189 kts 120°
2026-04-21 01:52 -27.59700 -48.68054 2619 ft 179 kts 120°
2026-04-21 01:52 -27.60907 -48.65781 2197 ft 161 kts 120°
2026-04-21 01:52 -27.61470 -48.64721 1970 ft 156 kts 120°
2026-04-21 01:53 -27.62015 -48.63696 1770 ft 154 kts 120°
2026-04-21 01:53 -27.62566 -48.62658 1568 ft 155 kts 120°
2026-04-21 01:53 -27.63120 -48.61615 1361 ft 155 kts 121°
2026-04-21 01:53 -27.63670 -48.60581 1165 ft 153 kts 121°
2026-04-21 01:54 -27.64203 -48.59577 945 ft 144 kts 121°
2026-04-21 01:54 -27.64704 -48.58636 758 ft 137 kts 121°
2026-04-21 01:54 -27.65186 -48.57728 588 ft 134 kts 121°
2026-04-21 01:54 -27.65668 -48.56824 411 ft 134 kts 121°
2026-04-21 01:55 -27.66149 -48.55913 213 ft 136 kts 121°
2026-04-21 01:55 -27.66640 -48.54998 34 ft 135 kts 121°
2026-04-21 01:55 -27.67076 -48.54186 23 ft 101 kts 121°
2026-04-21 01:55 -27.67361 -48.53652 21 ft 63 kts 121°
2026-04-21 01:56 -27.67570 -48.53259 23 ft 53 kts 120°
2026-04-21 01:56 -27.67685 -48.53072 23 ft 20 kts 153°
2026-04-21 01:56 -27.67805 -48.53133 23 ft 20 kts 227°
2026-04-21 01:56 -27.67764 -48.53270 25 ft 19 kts 303°
2026-04-21 01:57 -27.67696 -48.53396 23 ft 19 kts 300°
2026-04-21 01:57 -27.67631 -48.53519 23 ft 18 kts 301°
2026-04-21 01:57 -27.67567 -48.53635 24 ft 17 kts 302°
2026-04-21 01:57 -27.67506 -48.53749 23 ft 17 kts 301°
2026-04-21 01:58 -27.67447 -48.53858 23 ft 16 kts 302°
2026-04-21 01:58 -27.67390 -48.53963 23 ft 15 kts 301°
2026-04-21 01:58 -27.67335 -48.54064 23 ft 15 kts 301°
2026-04-21 01:58 -27.67283 -48.54161 23 ft 14 kts 301°
2026-04-21 01:59 -27.67233 -48.54254 24 ft 14 kts 301°
2026-04-21 01:59 -27.67247 -48.54340 27 ft 13 kts 212°
2026-04-21 01:59 -27.67300 -48.54409 23 ft 13 kts 275°
2026-04-21 01:59 -27.67261 -48.54496 23 ft 12 kts 302°
2026-04-21 02:00 -27.67240 -48.54555 23 ft 4 kts 244°
2026-04-21 02:00 -27.67263 -48.54573 23 ft 2 kts 212°
2026-04-21 02:00 -27.67264 -48.54574 27 ft 0 kts 212°